Location: Newark
(43.6583°N, 1.6617°E)
Time: 18:48:20
(UTC+00:00)

Tiros 1 - Pass Details

Date: 29 August 2019
Orbit: 630 x 664 km, 48.4° (Epoch: 17 October)

Event Time Altitude Azimuth Distance (km) Brightness Sun altitude
Rises 19:55:21 0° 202° (SSW) 2,907 10.4 -14.4°
Reaches altitude 10° 19:58:06 10° 187° (S) 2,000 9.4 -14.9°
Enters shadow 20:00:41 20° 154° (SSE) 1,440 8.5 -15.3°
Maximum altitude 20:01:35 22° 137° (SE) 1,391 - -15.4°
Drops below altitude 10° 20:05:05 10° 87° (E) 2,006 - -16.0°
Sets 20:07:50 0° 72° (ENE) 2,918 - -16.4°
